Probability
0 0 0 0 0 0 0 0 0 0 0 0 0 0 0 0 0 0 0 0 0 0 0 0 0 0 0 0 0 0 0 0 0 0 0 0 0 1 2 2 2 2 2 2
0 0 0 0 0 0 0 0 0 0 0 0 0 0 0 0 0 0 0 0 0 0 0 0 0 0 0 0 0 0 0 0 0 0 0 0 0 1 2 1 1 1 1 1
0 0 0 0 0 0 0 0 0 0 0 0 0 0 0 0 0 0 0 0 0 0 0 0 0 0 0 0 0 0 0 0 0 0 0 0 0 1 1 0 0 0 0 0
0 0 0 0 0 0 0 0 0 0 0 0 0 0 0 0 0 0 0 0 0 0 0 0 0 0 0 0 0 0 0 0 0 0 0 0 0 0 0 0 0 0 0 0
0 0 0 0 0 0 0 0 0 0 0 0 0 0 0 0 0 0 0 0 0 0 0 0 0 0 0 0 0 0 0 0 0 0 0 0 0 0 0 0 0 0 0 0
0 0 0 0 0 0 0 0 0 0 0 0 0 0 0 0 0 0 0 0 0 0 0 0 0 0 0 0 0 0 0 0 0 0 0 0 0 0 0 0 0 0 0 0
0 0 0 0 0 0 0 0 0 0 0 0 0 0 0 0 0 0 0 0 0 0 0 0 0 0 0 0 0 0 0 0 0 0 0 0 0 0 0 0 0 0 0 0
0 0 0 0 0 0 0 0 0 0 0 0 0 0 0 0 0 0 0 0 0 0 0 0 0 0 0 0 0 0 0 0 0 0 0 0 0 0 0 0 0 0 0 0
0 0 0 0 0 0 0 0 0 0 0 0 0 0 0 0 0 0 0 0 0 0 0 0 0 0 0 0 0 0 0 0 0 0 0 0 0 0 0 0 0 0 0 0
0 0 0 0 0 0 0 0 0 0 0 0 0 0 0 0 0 0 0 0 0 0 0 0 0 0 0 0 0 0 0 0 0 0 0 0 0 0 0 0 0 0 0 0
0 0 0 0 0 0 0 0 0 0 0 0 0 0 0 0 0 0 0 0 0 0 0 0 0 0 0 0 0 0 0 0 0 0 0 0 0 0 0 0 0 0 0 0
0 0 0 0 0 0 0 0 0 0 0 0 0 0 0 0 0 0 0 0 0 0 0 0 0 0 0 0 0 0 0 0 0 0 0 0 0 0 0 0 0 0 0 0
0 0 0 0 0 0 0 0 0 0 0 0 0 0 0 0 0 0 0 0 0 0 0 0 0 0 0 0 0 0 0 0 0 0 0 0 0 0 0 0 0 0 0 0
0 0 0 0 0 0 0 0 0 0 0 0 0 0 0 0 0 0 0 0 0 0 0 0 0 0 0 0 0 0 0 0 0 0 0 0 0 0 0 0 0 0 0 0
0 0 0 0 0 0 0 0 0 0 0 0 0 0 0 0 0 0 0 0 0 0 0 0 0 0 0 0 0 0 0 0 0 0 0 0 0 0 0 0 0 0 0 0
0 0 0 0 0 0 0 0 0 0 0 0 0 0 0 0 0 0 0 0 0 0 0 0 0 0 0 0 0 0 0 0 0 0 0 0 0 0 0 0 0 0 0 0
0 0 0 0 0 0 0 0 0 0 0 0 0 0 0 0 0 0 0 0 0 0 0 0 0 0 0 0 0 0 0 0 0 0 0 0 0 0 0 0 0 0 0 0
0 0 0 0 0 0 0 0 0 0 0 0 0 0 0 0 0 0 0 0 0 0 0 0 0 0 0 0 0 0 0 0 0 0 0 0 0 0 0 0 0 0 0 0
0 0 0 0 0 0 0 0 0 0 0 0 0 0 0 0 0 0 0 0 0 0 0 0 0 0 0 0 0 0 0 0 0 0 0 0 0 0 0 0 0 0 0 0
0 0 0 0 0 0 0 0 0 0 0 0 0 0 0 0 0 0 0 0 0 0 0 0 0 0 0 0 0 0 0 0 0 0 0 0 0 0 0 0 0 0 0 0
0 0 0 0 0 0 0 0 0 0 0 0 0 0 0 0 0 0 0 0 0 0 0 0 0 0 0 0 0 0 0 0 0 0 0 0 0 0 0 0 0 0 0 0
0 0 0 0 0 0 0 0 0 0 0 0 0 0 0 0 0 0 0 0 0 0 0 0 0 0 0 0 0 0 0 0 0 0 0 0 0 0 0 0 0 0 0 0
0 0 0 0 0 0 0 0 0 0 0 0 0 0 0 0 0 0 0 0 0 0 0 0 0 0 0 0 0 0 0 0 0 0 0 0 0 0 0 0 0 0 0 0
0 0 0 0 0 0 0 0 0 0 0 0 0 0 0 0 0 0 0 0 0 0 0 0 0 0 0 0 0 0 0 0 0 0 0 0 0 0 0 0 0 0 0 0
0 0 0 0 0 0 0 0 0 0 0 0 0 0 0 0 0 0 0 0 0 0 0 0 0 0 0 0 0 0 0 0 0 0 0 0 0 0 0 0 0 0 0 0
0 0 0 0 0 0 0 0 0 0 0 0 0 0 0 0 0 0 0 0 0 0 0 0 0 0 0 0 0 0 0 0 0 0 0 0 0 0 0 0 0 0 0 0
0 0 0 0 0 0 0 0 0 0 0 0 0 0 0 0 0 0 0 0 0 0 0 0 0 0 0 0 0 0 0 0 0 0 0 0 0 0 0 0 0 0 0 0
Wind_Speed
5 4 3 4 5 4 6 7 8 8 7 10 7 5 5 4 4 5 5 5 5 6 5 5 5 6 6 6 5 5 6 6 6 6 5 5 5 5 4 3 4 4 4 4
4 3 3 5 7 6 7 7 8 7 10 7 4 2 3 4 4 5 5 5 6 6 6 6 6 6 7 6 6 5 5 6 6 5 5 5 5 4 4 3 3 4 4 4
3 4 5 7 6 6 4 4 5 8 8 3 3 4 5 5 5 5 5 6 6 6 6 6 6 6 6 6 6 5 6 6 6 5 5 6 5 4 4 4 3 4 4 4
1 4 5 7 1 3 4 5 5 5 5 4 5 5 5 4 4 5 5 6 6 5 6 6 6 6 6 5 5 5 6 6 6 6 6 6 5 4 4 4 3 4 4 4
1 2 9 7 2 2 3 6 4 5 6 4 3 4 4 3 3 4 5 5 5 5 5 5 6 6 6 6 5 5 6 6 6 6 6 6 6 5 4 4 4 4 4 4
2 3 7 6 2 1 2 6 3 3 4 3 1 2 5 3 4 5 5 4 4 4 4 5 6 5 5 6 6 6 6 6 6 6 6 6 6 6 5 4 4 4 4 3
4 5 10 6 2 3 2 7 3 3 3 3 4 5 5 5 5 5 5 5 4 4 4 5 5 5 5 6 7 7 6 6 6 6 6 6 5 5 5 4 4 4 4 4
5 5 10 3 5 6 7 3 2 2 3 4 4 5 4 5 5 5 6 5 4 4 5 5 5 4 5 6 7 7 6 6 6 6 5 5 5 5 5 4 4 4 4 4
9 9 4 5 6 4 2 3 3 3 3 3 4 5 5 4 5 5 5 5 4 4 6 6 5 4 5 7 7 6 6 6 6 6 5 5 5 5 4 3 3 4 4 4
5 7 4 5 4 3 3 4 4 4 4 3 4 5 5 5 5 5 5 4 4 5 6 6 6 6 5 6 6 6 6 6 6 5 5 5 4 4 4 3 3 4 4 4
5 6 4 4 6 5 4 3 3 3 3 4 4 5 4 4 5 5 5 4 4 4 5 7 7 7 7 6 6 6 6 6 6 5 5 4 4 4 5 4 4 5 4 4
7 6 5 5 4 4 4 5 4 3 3 3 3 4 4 5 4 4 4 4 5 5 6 6 6 7 7 6 5 5 6 5 4 4 4 4 4 5 7 7 10 10 10 8
5 3 3 4 2 2 3 4 3 4 4 4 4 4 4 4 4 4 4 5 5 5 6 6 6 7 7 6 5 5 5 5 4 4 4 4 4 5 6 7 9 10 11 12
3 1 2 3 2 2 2 2 2 3 3 3 3 3 3 4 4 4 5 5 5 5 5 5 6 7 7 6 6 5 5 6 5 4 4 4 4 4 4 5 6 6 8 11
3 3 4 3 2 2 2 1 1 3 3 3 3 3 3 4 5 5 5 5 5 5 5 5 6 7 6 6 6 5 5 4 4 4 3 4 4 4 4 5 5 5 5 7
3 2 2 2 3 2 1 2 3 4 3 3 3 4 4 4 5 5 5 4 4 6 6 6 6 6 6 6 5 5 4 7 7 4 4 4 4 4 4 4 5 5 5 6
1 2 3 3 3 3 3 3 4 4 3 4 5 4 4 4 4 5 5 4 4 5 6 6 6 6 5 5 5 4 4 5 8 5 4 4 4 4 4 4 5 5 5 6
4 4 4 3 3 3 3 3 3 3 3 4 4 3 4 4 5 6 6 5 5 5 5 5 6 5 5 5 4 3 3 3 4 4 4 4 4 4 4 4 5 6 5 6
2 2 2 3 2 3 3 3 3 3 3 3 3 4 4 4 4 5 4 4 5 6 6 6 8 6 5 6 6 3 3 4 4 4 4 6 6 4 4 5 5 5 6 5
2 1 1 1 1 1 2 3 3 3 3 3 3 4 4 4 4 4 4 4 4 4 5 6 6 5 5 5 6 3 3 4 4 4 4 4 4 5 4 5 5 5 5 5
2 2 2 2 2 2 2 2 2 3 3 3 3 4 4 5 4 3 3 4 5 5 5 7 4 4 5 5 6 3 3 4 4 4 4 4 5 5 5 5 5 6 6 6
1 1 2 2 2 2 2 2 2 3 3 3 3 3 4 4 4 4 4 4 5 8 5 3 4 6 7 6 3 3 3 4 4 3 4 4 4 5 5 5 5 6 6 5
1 1 1 2 2 2 2 2 2 2 3 3 3 4 4 4 3 3 5 4 4 7 5 4 7 10 10 4 2 3 3 4 4 4 4 4 4 4 5 5 5 6 6 6
1 1 2 2 1 1 2 3 3 2 3 3 3 4 3 3 3 3 3 7 9 9 5 7 10 10 8 3 3 3 3 4 4 4 4 4 4 4 5 5 5 5 5 6
1 1 1 1 1 2 3 3 3 3 3 3 4 3 3 2 3 4 4 5 8 8 5 7 10 10 5 3 3 3 4 4 4 4 4 4 5 5 5 5 5 5 5 5
1 1 1 2 2 2 2 2 2 2 3 3 4 3 3 3 3 3 3 4 6 7 5 4 5 6 4 4 4 4 4 5 5 5 5 5 5 5 5 6 7 6 5 6
1 1 1 1 1 1 1 2 2 3 3 3 4 4 3 3 3 3 4 4 4 4 4 4 4 4 4 4 4 4 4 4 4 5 5 5 5 5 6 7 6 6 5 6
Wind_Direction
253 263 241 240 250 218 203 209 217 242 244 263 265 264 273 288 304 309 312 319 325 324 322 323 324 322 319 317 319 320 317 314 308 307 310 312 307 300 297 298 295 286 285 282
288 284 280 277 268 242 234 233 239 261 270 265 276 276 279 286 290 294 302 309 315 317 319 320 319 319 321 318 314 316 314 309 308 310 314 311 304 306 310 306 301 294 285 282
279 318 338 283 249 217 220 223 210 235 252 285 296 275 266 271 278 282 291 299 304 307 310 311 311 311 309 307 313 314 309 310 317 316 314 311 311 317 312 303 296 291 285 280
291 10 260 247 221 192 219 252 228 247 270 266 262 272 269 257 257 278 288 295 297 303 308 309 309 310 306 308 310 311 312 319 324 324 320 317 315 310 307 298 286 281 279 279
156 262 277 292 261 187 210 275 236 244 274 290 312 314 287 276 274 276 282 284 287 290 295 302 306 309 312 315 318 316 318 320 319 319 318 317 315 311 306 300 293 287 281 278
157 214 251 259 266 219 113 285 261 225 258 279 350 304 280 304 311 301 299 292 292 299 303 305 309 316 319 318 321 316 313 312 312 314 314 312 310 311 308 301 292 291 291 285
195 232 263 254 233 111 169 260 281 231 249 242 224 236 272 302 307 303 302 303 305 309 310 307 313 322 321 319 312 309 312 313 314 316 314 308 312 318 316 312 308 300 294 290
173 213 256 202 142 185 223 257 256 254 251 250 261 278 290 300 307 315 319 320 321 319 317 319 323 326 321 315 311 315 315 314 314 315 315 318 323 319 319 320 319 312 298 295
195 215 241 182 198 220 202 233 246 242 257 254 267 279 293 299 304 307 311 316 320 317 319 324 327 326 315 313 317 320 322 319 316 317 316 320 320 317 320 321 314 305 300 296
252 263 253 238 242 249 228 238 253 248 250 242 261 277 290 298 305 309 310 316 322 323 322 321 324 323 313 314 320 323 320 319 320 321 321 322 319 317 318 314 305 300 301 300
253 270 294 259 233 236 241 253 265 271 252 245 254 275 279 288 295 301 310 314 315 314 311 313 319 322 322 324 326 323 318 317 321 321 321 323 324 318 313 303 302 303 300 297
228 225 212 246 240 225 227 241 246 255 273 271 254 263 278 283 286 292 300 305 309 309 310 311 316 318 320 322 322 319 318 320 317 317 320 323 323 326 328 324 324 321 317 311
230 239 226 255 268 226 220 237 243 242 247 264 268 262 269 278 285 291 299 302 301 302 305 308 312 314 318 322 322 318 314 315 313 317 319 320 321 323 324 331 334 333 330 327
236 211 257 248 246 254 250 258 259 264 266 263 267 276 278 282 290 294 295 296 299 301 305 307 310 312 317 320 320 318 315 315 320 316 315 317 317 316 316 320 326 329 331 329
254 226 234 252 260 274 276 268 277 283 287 291 284 284 288 290 290 292 296 302 309 309 308 312 312 313 320 322 321 319 318 316 315 314 315 315 316 317 317 316 315 317 322 327
273 261 244 241 251 265 269 253 257 270 276 281 284 286 286 285 288 293 298 303 307 306 307 308 307 311 319 322 320 318 317 320 326 324 321 319 316 315 315 315 316 317 319 322
227 261 258 264 265 261 251 247 249 259 266 271 277 288 296 301 304 305 305 301 292 292 297 300 304 312 320 321 317 315 315 318 324 327 321 316 313 313 314 314 314 315 314 317
227 237 236 239 248 258 263 264 262 263 264 270 284 290 291 292 292 296 302 307 308 307 307 308 311 317 320 319 318 317 316 316 318 317 317 317 316 313 312 311 311 311 313 318
263 257 251 252 248 245 254 265 273 275 279 281 281 280 278 279 285 293 302 308 310 310 316 318 323 329 321 317 324 317 316 317 319 318 318 321 325 322 319 316 314 313 315 319
292 296 279 282 281 261 268 276 278 280 282 279 282 288 292 293 295 298 299 291 285 286 301 314 318 317 313 314 322 318 316 314 314 316 319 320 319 320 321 320 320 317 317 317
290 302 303 296 296 292 281 276 275 281 288 282 275 280 286 293 297 296 299 300 300 304 309 315 320 312 310 315 317 320 317 314 314 313 314 315 316 316 318 318 317 316 317 318
281 283 284 287 290 295 294 288 279 282 294 294 289 289 295 300 302 298 280 276 298 318 322 310 308 313 319 322 325 321 317 315 313 312 311 312 312 312 313 315 313 313 314 315
273 275 275 275 276 285 299 296 289 286 290 295 295 294 291 288 289 295 302 304 308 316 321 309 314 320 324 333 325 316 315 314 312 311 309 308 307 307 308 310 310 312 314 314
273 279 281 288 298 305 304 301 300 297 290 286 289 289 292 296 295 278 279 305 317 319 316 313 320 322 328 335 317 311 309 306 304 303 302 302 303 303 303 304 305 307 309 310
267 274 285 299 291 284 289 303 312 309 305 302 302 300 293 279 281 296 299 300 311 320 316 317 323 326 330 317 309 304 301 299 301 303 301 303 303 302 302 303 303 304 306 307
287 278 271 266 269 281 297 309 310 310 313 313 314 313 307 301 293 296 300 303 305 316 318 312 314 318 317 310 304 303 301 305 311 308 302 300 300 300 301 303 302 301 302 303
339 322 314 315 312 309 306 302 299 301 304 302 303 308 312 315 314 314 313 312 314 314 311 312 313 311 309 308 305 303 300 298 297 297 297 295 294 293 295 295 295 297 299 299